Skip Page Navigation
NASA JPL Caltech
NASA Logo - Jet Propulsion Laboratory + View the NASA Portal
+ Center for Near-Earth Object Studies
JPL Home Earth Solar System Stars & Galaxies Technology
JPL Solar System Dynamics
BODIES ORBITS EPHEMERIDES TOOLS PHYSICAL DATA DISCOVERY FAQ SITE MAP
IMPORTANT: The SSD Announcement email list is now available. Major changes are coming in the near future, including possible hostname and/or URL changes. To be notified of such changes, subscribe to this email list.

Please visit this page for more details.


JPL Small-Body Database Browser
Search: [ help ]  
65004 (2002 AM71)
Classification: Main-belt Asteroid          SPK-ID: 2065004
Ephemeris | Orbit Diagram | Orbital Elements | Mission Design | Physical Parameters | Discovery Circumstances | Close-Approach Data ]

[ show orbit diagram ]
Orbital Elements at Epoch 2459000.5 (2020-May-31.0) TDB
Reference: JPL 21 (heliocentric ecliptic J2000)
 Element Value Uncertainty (1-sigma)   Units 
e .2190279840788311 4.0788e-08  
a 2.38716476884483 7.6961e-09 au
q 1.864308881860739 9.7522e-08 au
i 3.047858376518309 3.513e-06 deg
node 75.05645720821914 8.2241e-05 deg
peri 289.4097355462776 8.2676e-05 deg
M 66.28587889537459 7.0937e-06 deg
tp 2458752.449252826284
(2019-Sep-25.94925283)
2.6663e-05 TDB
period 1347.16881590249
3.69
6.5148e-06
1.784e-08
d
yr
n .2672270882093052 1.2923e-09 deg/d
Q 2.910020655828922 9.3817e-09 au
  Orbit Determination Parameters
   # obs. used (total)      874  
   data-arc span      8684 days (23.78 yr)  
   first obs. used      1996-04-18  
   last obs. used      2020-01-27  
   planetary ephem.      DE431  
   SB-pert. ephem.      SB431-N16  
   condition code      0  
   norm. resid. RMS      .54316  
   source      ORB  
   producer      Otto Matic  
   solution date      2020-Feb-23 14:31:55  

Additional Information
 Earth MOID = .865105 au 
 Jupiter MOID = 2.55087 au 
 T_jup = 3.500 
[ show covariance matrix ]

Ephemeris | Orbit Diagram | Orbital Elements | Mission Design | Physical Parameters | Discovery Circumstances | Close-Approach Data ]

Physical Parameter Table
Parameter Symbol Value Units Sigma Reference Notes
absolute magnitude H 15.8   n/a MPO432202  

65004 (2002 AM71)          Discovered 2002-Jan-08 by LINEAR at Socorro
Reference: 20030614/Numbers.arcLast Updated: 2004-04-19

[ show close-approach data ]
Alternate Designations
 2002 AM71 = 1996 HD17 
Ephemeris | Orbit Diagram | Orbital Elements | Mission Design | Physical Parameters | Discovery Circumstances | Close-Approach Data ]
ABOUT SSD CREDITS/AWARDS PRIVACY/COPYRIGHT GLOSSARY LINKS
FirstGov 2020-Apr-04 10:19 UT
(server date/time)  
NASA Home Page
Site Manager:   Ryan S. Park
Webmaster  Alan B. Chamberlin